| time (UTC) | temp C | wind direction | speed KPH | gust KPH | rain 1hr cm | rain 24hr cm | rain mn cm | humidity % | barometer mb |
| 20260505160409 | 12 | 51 | 6.4 | 14.5 | 0.00 | 0.00 | 0.00 | 77 | 1009.7 |
| 20260505151409 | 13 | 355 | 8.0 | 16.1 | 0.00 | 0.00 | 0.00 | 74 | 1010.0 |
| 20260505150409 | 13 | 355 | 8.0 | 14.5 | 0.00 | 0.00 | 0.00 | 77 | 1010.0 |
| 20260505140404 | 13 | 5 | 8.0 | 17.7 | 0.00 | 0.00 | 0.00 | 79 | 1010.3 |
| 20260505124405 | 12 | 360 | 3.2 | 8.0 | 0.00 | 0.00 | 0.00 | 83 | 1010.9 |
| 20260505123406 | 11 | 350 | 6.4 | 14.5 | 0.00 | 0.00 | 0.00 | 81 | 1011.0 |
| 20260505122405 | 11 | 15 | 4.8 | 12.9 | 0.00 | 0.00 | 0.00 | 80 | 1011.0 |
| 20260505121405 | 11 | 24 | 3.2 | 6.4 | 0.00 | 0.00 | 0.00 | 82 | 1010.9 |
| 20260505120406 | 11 | 5 | 4.8 | 9.7 | 0.00 | 0.00 | 0.00 | 82 | 1011.0 |
| 20260505115405 | 12 | 325 | 4.8 | 11.3 | 0.00 | 0.00 | 0.00 | 83 | 1011.0 |
| 20260505114405 | 11 | 57 | 4.8 | 12.9 | 0.00 | 0.00 | 0.00 | 84 | 1011.1 |
| 20260505112405 | 11 | 355 | 6.4 | 12.9 | 0.00 | 0.00 | 0.00 | 83 | 1011.1 |
| 20260505111406 | 11 | 350 | 6.4 | 12.9 | 0.00 | 0.00 | 0.00 | 82 | 1011.2 |
| 20260505110408 | 11 | 69 | 3.2 | 6.4 | 0.00 | 0.00 | 0.00 | 83 | 1011.3 |
| 20260505101406 | 10 | 19 | 4.8 | 8.0 | 0.00 | 0.00 | 0.00 | 83 | 1011.5 |
| 20260505100406 | 10 | 26 | 8.0 | 17.7 | 0.00 | 0.00 | 0.00 | 84 | 1011.6 |
| 20260505095406 | 10 | 325 | 8.0 | 14.5 | 0.00 | 0.00 | 0.00 | 84 | 1011.6 |
| 20260505094406 | 10 | 42 | 9.7 | 19.3 | 0.00 | 0.00 | 0.00 | 84 | 1011.6 |
| 20260505093409 | 10 | 35 | 6.4 | 14.5 | 0.00 | 0.00 | 0.00 | 85 | 1011.6 |
| 20260505091407 | 10 | 62 | 4.8 | 12.9 | 0.00 | 0.00 | 0.00 | 85 | 1011.8 |
| 20260505090406 | 10 | 14 | 6.4 | 14.5 | 0.00 | 0.00 | 0.00 | 86 | 1011.9 |
| 20260505084407 | 10 | 76 | 4.8 | 12.9 | 0.00 | 0.00 | 0.00 | 85 | 1012.1 |
| 20260505083409 | 10 | 24 | 4.8 | 8.0 | 0.00 | 0.00 | 0.00 | 86 | 1012.1 |
| 20260505082406 | 10 | 30 | 4.8 | 14.5 | 0.00 | 0.00 | 0.00 | 85 | 1012.1 |
| 20260505074407 | 8 | 355 | 8.0 | 14.5 | 0.00 | 0.00 | 0.00 | 87 | 1012.2 |
| 20260505072407 | 8 | 21 | 8.0 | 16.1 | 0.00 | 0.00 | 0.00 | 88 | 1012.1 |
| 20260505071407 | 8 | 360 | 8.0 | 19.3 | 0.00 | 0.00 | 0.00 | 88 | 1012.1 |
| 20260505070407 | 8 | 5 | 9.7 | 19.3 | 0.00 | 0.00 | 0.00 | 88 | 1012.1 |
| 20260505065407 | 8 | 15 | 6.4 | 12.9 | 0.00 | 0.00 | 0.00 | 88 | 1012.2 |
| 20260505064407 | 8 | 355 | 6.4 | 11.3 | 0.00 | 0.00 | 0.00 | 89 | 1012.2 |
| 20260505063407 | 8 | 24 | 6.4 | 14.5 | 0.00 | 0.00 | 0.00 | 89 | 1012.3 |
| 20260505062407 | 8 | 344 | 4.8 | 16.1 | 0.00 | 0.00 | 0.00 | 89 | 1012.2 |
| 20260505060407 | 8 | 53 | 6.4 | 14.5 | 0.00 | 0.00 | 0.00 | 89 | 1012.3 |
| 20260505055407 | 8 | 14 | 4.8 | 9.7 | 0.00 | 0.00 | 0.00 | 89 | 1012.2 |
| 20260505054407 | 8 | 33 | 4.8 | 12.9 | 0.00 | 0.00 | 0.00 | 89 | 1012.2 |
| 20260505052407 | 8 | 55 | 8.0 | 17.7 | 0.00 | 0.00 | 0.00 | 89 | 1012.2 |
| 20260505051407 | 8 | 14 | 6.4 | 16.1 | 0.00 | 0.00 | 0.00 | 89 | 1012.2 |
| 20260505041407 | 8 | 42 | 8.0 | 16.1 | 0.00 | 0.00 | 0.00 | 89 | 1012.1 |
| 20260505040407 | 8 | 32 | 4.8 | 19.3 | 0.00 | 0.00 | 0.00 | 90 | 1012.1 |
| 20260505035407 | 8 | 12 | 4.8 | 11.3 | 0.00 | 0.00 | 0.00 | 89 | 1012.0 |
| 20260505034407 | 8 | 66 | 3.2 | 6.4 | 0.00 | 0.00 | 0.00 | 89 | 1012.1 |
| 20260505030407 | 8 | 59 | 4.8 | 12.9 | 0.00 | 0.00 | 0.00 | 89 | 1012.3 |
| 20260505025407 | 8 | 56 | 4.8 | 12.9 | 0.00 | 0.00 | 0.00 | 89 | 1012.3 |
| 20260505024412 | 8 | 36 | 8.0 | 16.1 | 0.00 | 0.00 | 0.00 | 89 | 1012.4 |
| 20260505022412 | 8 | 351 | 6.4 | 17.7 | 0.00 | 0.00 | 0.00 | 89 | 1012.4 |
| 20260505021415 | 8 | 15 | 8.0 | 16.1 | 0.00 | 0.00 | 0.00 | 90 | 1012.5 |
| 20260505020412 | 8 | 36 | 4.8 | 11.3 | 0.00 | 0.00 | 0.00 | 90 | 1012.6 |
| 20260505014412 | 8 | 342 | 6.4 | 14.5 | 0.00 | 0.00 | 0.00 | 90 | 1012.7 |
| 20260505013415 | 8 | 360 | 8.0 | 17.7 | 0.00 | 0.00 | 0.00 | 90 | 1012.7 |
| 20260505012412 | 8 | 9 | 4.8 | 14.5 | 0.00 | 0.00 | 0.00 | 90 | 1012.8 |
| 20260505011412 | 8 | 12 | 6.4 | 12.9 | 0.00 | 0.00 | 0.00 | 90 | 1012.8 |
| 20260505010412 | 8 | 345 | 3.2 | 8.0 | 0.00 | 0.00 | 0.00 | 90 | 1012.8 |
| 20260505005415 | 8 | 333 | 3.2 | 11.3 | 0.00 | 0.00 | 0.00 | 90 | 1012.8 |
| 20260505004412 | 8 | 45 | 6.4 | 12.9 | 0.00 | 0.00 | 0.00 | 90 | 1012.9 |
| 20260505003412 | 8 | 327 | 4.8 | 14.5 | 0.00 | 0.00 | 0.00 | 91 | 1012.9 |
| 20260505002415 | 8 | 346 | 3.2 | 14.5 | 0.00 | 0.00 | 0.00 | 91 | 1013.0 |
| 20260505001412 | 8 | 11 | 4.8 | 12.9 | 0.00 | 0.00 | 0.00 | 91 | 1013.0 |
| 20260505000413 | 8 | 5 | 4.8 | 9.7 | 0.00 | 0.00 | 0.00 | 91 | 1013.1 |
| 20260504235412 | 8 | 5 | 4.8 | 9.7 | 0.00 | 0.00 | 0.00 | 91 | 1013.1 |
| 20260504233412 | 8 | 346 | 8.0 | 14.5 | 0.00 | 0.00 | 0.00 | 91 | 1013.1 |
| 20260504232412 | 8 | 355 | 6.4 | 16.1 | 0.00 | 0.00 | 0.00 | 90 | 1013.1 |
| 20260504231412 | 8 | 322 | 9.7 | 17.7 | 0.00 | 0.00 | 0.00 | 90 | 1013.2 |
| 20260504230412 | 8 | 17 | 8.0 | 16.1 | 0.00 | 0.00 | 0.00 | 90 | 1013.2 |
| 20260504223410 | 14 | 350 | 9.7 | 14.5 | 0.00 | 0.05 | 0.00 | 87 | 1012.6 |
| 20260504221410 | 14 | 350 | 9.7 | 14.5 | 0.00 | 0.05 | 0.00 | 87 | 1012.6 |
| 20260504220410 | 14 | 350 | 9.7 | 14.5 | 0.00 | 0.05 | 0.00 | 87 | 1012.6 |
| 20260504215410 | 14 | 350 | 9.7 | 14.5 | 0.00 | 0.05 | 0.00 | 87 | 1012.6 |
| 20260504214410 | 14 | 350 | 9.7 | 14.5 | 0.00 | 0.05 | 0.00 | 87 | 1012.6 |
| 20260504212410 | 14 | 350 | 9.7 | 14.5 | 0.00 | 0.05 | 0.00 | 87 | 1012.6 |
| 20260504211410 | 14 | 350 | 9.7 | 14.5 | 0.00 | 0.05 | 0.00 | 87 | 1012.6 |
| 20260504210413 | 14 | 350 | 9.7 | 14.5 | 0.00 | 0.05 | 0.00 | 87 | 1012.6 |
| 20260504205410 | 14 | 350 | 9.7 | 14.5 | 0.00 | 0.05 | 0.00 | 87 | 1012.6 |
| 20260504204410 | 14 | 350 | 9.7 | 14.5 | 0.00 | 0.05 | 0.00 | 87 | 1012.6 |
| 20260504203410 | 14 | 350 | 9.7 | 14.5 | 0.00 | 0.05 | 0.00 | 87 | 1012.6 |
| 20260504201410 | 14 | 350 | 9.7 | 14.5 | 0.00 | 0.05 | 0.00 | 87 | 1012.6 |
| 20260504200410 | 14 | 350 | 9.7 | 14.5 | 0.00 | 0.05 | 0.00 | 87 | 1012.6 |
| 20260504195413 | 14 | 350 | 9.7 | 14.5 | 0.00 | 0.05 | 0.00 | 87 | 1012.6 |
| 20260504194410 | 14 | 350 | 9.7 | 14.5 | 0.00 | 0.05 | 0.00 | 87 | 1012.6 |
| 20260504193410 | 14 | 350 | 9.7 | 14.5 | 0.00 | 0.05 | 0.00 | 87 | 1012.6 |
| 20260504192410 | 14 | 350 | 9.7 | 14.5 | 0.00 | 0.05 | 0.00 | 87 | 1012.6 |
| 20260504191410 | 14 | 350 | 9.7 | 14.5 | 0.00 | 0.05 | 0.00 | 87 | 1012.6 |
| 20260504185410 | 14 | 350 | 9.7 | 14.5 | 0.00 | 0.05 | 0.00 | 87 | 1012.6 |
| 20260504184413 | 14 | 350 | 9.7 | 14.5 | 0.00 | 0.05 | 0.00 | 87 | 1012.6 |
| 20260504183410 | 14 | 350 | 9.7 | 14.5 | 0.00 | 0.05 | 0.00 | 87 | 1012.6 |
| 20260504181409 | 14 | 350 | 9.7 | 14.5 | 0.00 | 0.05 | 0.00 | 87 | 1012.6 |
| 20260504180409 | 14 | 350 | 9.7 | 14.5 | 0.00 | 0.05 | 0.00 | 87 | 1012.6 |
| 20260504174410 | 14 | 350 | 9.7 | 14.5 | 0.00 | 0.05 | 0.00 | 87 | 1012.6 |
| 20260504173409 | 14 | 350 | 9.7 | 14.5 | 0.00 | 0.05 | 0.00 | 87 | 1012.6 |
| 20260504172410 | 14 | 350 | 9.7 | 14.5 | 0.00 | 0.05 | 0.00 | 87 | 1012.6 |
| 20260504170409 | 15 | 5 | 9.7 | 17.7 | 0.00 | 0.05 | 0.00 | 86 | 1012.6 |